Location: Brachbach
(49.1847°N, 9.7240°E)
Time: 00:55:20
(UTC+00:00)

ARIANE 6 FM1 Upper Stage - Visible Passes

Search period start: 25 January 2026 00:00
Search period end: 04 February 2026 00:00
Orbit: 522 x 610 km, 62.0° (Epoch: 24 January)

Date Brightness Start Highest point End Pass type
(mag) Time Alt. Az. Time Alt. Az. Time Alt. Az.
25 Jan 2.6 17:34:35 10° SSW 17:38:36 63° SE 17:40:38 27° ENE visible
25 Jan 4.8 19:14:27 10° W 19:16:40 23° WNW 19:16:40 23° WNW visible
26 Jan 2.5 17:34:38 10° SW 17:38:43 88° SE 17:41:08 23° NE visible
26 Jan 4.9 19:15:01 10° WNW 19:17:10 20° NW 19:17:10 20° NW visible
27 Jan 2.8 17:34:48 10° SW 17:38:50 67° NW 17:41:34 19° NE visible
27 Jan 5.1 19:15:35 10° WNW 19:17:36 18° NW 19:17:36 18° NW visible
28 Jan 3.3 17:35:03 10° WSW 17:39:00 50° NW 17:41:56 16° NNE visible
28 Jan 5.2 19:16:12 10° WNW 19:17:57 16° NNW 19:17:57 16° NNW visible
29 Jan 3.7 17:35:23 10° WSW 17:39:10 38° NW 17:42:15 14° NNE visible
29 Jan 5.2 19:16:48 10° NW 19:18:16 14° NNW 19:18:16 14° NNW visible
30 Jan 4.1 17:35:47 10° W 17:39:23 30° NNW 17:42:30 12° NNE visible
30 Jan 5.3 19:17:23 10° NW 19:18:31 13° NNW 19:18:31 13° NNW visible
31 Jan 4.4 17:36:15 10° W 17:39:36 25° NNW 17:42:44 11° NNE visible
31 Jan 5.3 19:17:54 10° NW 19:18:44 12° NNW 19:18:44 12° NNW visible
1 Feb 4.6 17:36:45 10° WNW 17:39:51 21° NNW 17:42:55 10° NNE visible
1 Feb 5.4 19:18:18 10° NNW 19:18:55 12° NNW 19:18:55 12° NNW visible
2 Feb 4.7 17:37:18 10° WNW 17:40:07 18° NNW 17:42:54 10° NNE visible
2 Feb 5.4 19:18:36 10° NNW 19:19:05 11° NNW 19:19:05 11° NNW visible
3 Feb 4.8 17:37:51 10° NW 17:40:23 16° NNW 17:42:55 10° NNE visible
3 Feb 5.4 19:18:47 10° NNW 19:19:13 11° NNW 19:19:13 11° NNW visible
